When you browse on this site, cookies collect data to enhance your experience and personalize the content and advertising you see.
Visit our Privacy Policy to learn more. By continuing to use the site, you agree to this use of cookies and data.
  • En España
  • Lista de países
  • Para 7 días
  • Temperatura del agua
  • El tiempo en el mapa
  • Informadores
  • user-avatar
    Iniciar sesión

    Tiempo cada hora Dikhil

    Hoy, 26 Febrero, Miércoles

    Tiempo Temperatura Precipitaciones Viento Presión Humedad
    00:00 +26°C° 0 mm 3 mps 719 mmHg 70%
    01:00 +25°C° 0 mm 2 mps 718 mmHg 71%
    02:00 +25°C° 0 mm 2 mps 718 mmHg 72%
    03:00 +25°C° 0 mm 1 mps 718 mmHg 72%
    04:00 +24°C° 0 mm 1 mps 718 mmHg 74%
    05:00 +24°C° 0 mm 1 mps 719 mmHg 75%
    06:00 +23°C° 0 mm 2 mps 719 mmHg 76%
    07:00 +25°C° 0 mm 2 mps 720 mmHg 68%
    08:00 +26°C° 0 mm 2 mps 720 mmHg 60%
    09:00 +27°C° 0 mm 2 mps 720 mmHg 53%
    10:00 +29°C° 0 mm 2 mps 720 mmHg 48%
    11:00 +30°C° 0 mm 2 mps 720 mmHg 43%
    12:00 +33°C° 0 mm 3 mps 720 mmHg 37%
    13:00 +34°C° 0 mm 3 mps 719 mmHg 36%
    14:00 +35°C° 0 mm 4 mps 718 mmHg 34%
    15:00 +35°C° 0 mm 3 mps 717 mmHg 33%
    16:00 +35°C° 0 mm 4 mps 718 mmHg 35%
    17:00 +34°C° 0 mm 4 mps 718 mmHg 36%
    18:00 +34°C° 0 mm 5 mps 718 mmHg 38%
    19:00 +32°C° 0 mm 5 mps 718 mmHg 47%
    20:00 +30°C° 0 mm 6 mps 719 mmHg 56%
    21:00 +28°C° 0 mm 7 mps 719 mmHg 65%
    22:00 +27°C° 0 mm 6 mps 719 mmHg 68%
    23:00 +26°C° 0 mm 5 mps 719 mmHg 71%

    Mañana, 27 Febrero, Jueves

    Tiempo Temperatura Precipitaciones Viento Presión Humedad
    00:00 +26°C° 0 mm 5 mps 720 mmHg 75%
    01:00 +26°C° 0 mm 4 mps 719 mmHg 75%
    02:00 +25°C° 0 mm 3 mps 718 mmHg 76%
    03:00 +25°C° 0 mm 3 mps 718 mmHg 76%
    04:00 +25°C° 0 mm 2 mps 718 mmHg 78%
    05:00 +25°C° 0 mm 2 mps 719 mmHg 79%
    06:00 +24°C° 0 mm 2 mps 719 mmHg 80%
    07:00 +25°C° 0 mm 2 mps 720 mmHg 75%
    08:00 +26°C° 0 mm 2 mps 720 mmHg 69%
    09:00 +27°C° 0 mm 2 mps 721 mmHg 64%
    10:00 +29°C° 0 mm 2 mps 720 mmHg 56%
    11:00 +30°C° 0 mm 3 mps 720 mmHg 48%
    12:00 +33°C° 0 mm 3 mps 720 mmHg 41%
    13:00 +34°C° 0 mm 3 mps 719 mmHg 35%
    14:00 +35°C° 0 mm 4 mps 718 mmHg 29%
    15:00 +37°C° 0 mm 5 mps 718 mmHg 23%
    16:00 +36°C° 0 mm 5 mps 718 mmHg 24%
    17:00 +35°C° 0 mm 6 mps 718 mmHg 25%
    18:00 +34°C° 0 mm 7 mps 718 mmHg 26%
    19:00 +33°C° 0 mm 7 mps 718 mmHg 35%
    20:00 +30°C° 0 mm 6 mps 718 mmHg 43%
    21:00 +28°C° 0 mm 6 mps 719 mmHg 52%
    22:00 +28°C° 0 mm 5 mps 718 mmHg 56%
    23:00 +27°C° 0 mm 5 mps 718 mmHg 59%

    Pasado mañana, 28 Febrero, Viernes

    Tiempo Temperatura Precipitaciones Viento Presión Humedad
    00:00 +26°C° 0 mm 4 mps 718 mmHg 63%
    01:00 +25°C° 0 mm 3 mps 718 mmHg 68%
    02:00 +25°C° 0 mm 3 mps 717 mmHg 72%
    03:00 +24°C° 0 mm 2 mps 717 mmHg 77%
    04:00 +24°C° 0 mm 2 mps 717 mmHg 79%
    05:00 +23°C° 0 mm 2 mps 717 mmHg 81%
    06:00 +23°C° 0 mm 2 mps 718 mmHg 83%
    07:00 +24°C° 0 mm 2 mps 718 mmHg 70%
    08:00 +26°C° 0 mm 3 mps 719 mmHg 56%
    09:00 +28°C° 0 mm 3 mps 720 mmHg 43%
    10:00 +30°C° 0 mm 4 mps 720 mmHg 35%
    11:00 +33°C° 0 mm 4 mps 719 mmHg 27%
    12:00 +35°C° 0 mm 5 mps 719 mmHg 20%
    13:00 +36°C° 0 mm 6 mps 718 mmHg 19%
    14:00 +36°C° 0 mm 6 mps 717 mmHg 18%
    15:00 +38°C° 0 mm 7 mps 716 mmHg 18%
    16:00 +36°C° 0 mm 7 mps 716 mmHg 20%
    17:00 +34°C° 0 mm 8 mps 716 mmHg 23%
    18:00 +33°C° 0 mm 8 mps 716 mmHg 26%
    19:00 +32°C° 0 mm 7 mps 717 mmHg 29%
    20:00 +29°C° 0 mm 7 mps 717 mmHg 32%
    21:00 +28°C° 0 mm 7 mps 717 mmHg 35%
    22:00 +27°C° 0 mm 6 mps 717 mmHg 36%
    23:00 +27°C° 0 mm 5 mps 716 mmHg 37%

    29 Febrero, Sábado

    Tiempo Temperatura Precipitaciones Viento Presión Humedad
    00:00 +26°C° 0 mm 5 mps 716 mmHg 39%
    01:00 +25°C° 0 mm 4 mps 716 mmHg 43%
    02:00 +23°C° 0 mm 4 mps 715 mmHg 48%
    03:00 +24°C° 0 mm 3 mps 715 mmHg 52%
    04:00 +22°C° 0 mm 3 mps 715 mmHg 56%
    05:00 +22°C° 0 mm 3 mps 716 mmHg 59%
    06:00 +21°C° 0 mm 3 mps 716 mmHg 62%
    07:00 +24°C° 0 mm 3 mps 716 mmHg 53%
    08:00 +26°C° 0 mm 4 mps 717 mmHg 44%
    09:00 +28°C° 0 mm 4 mps 718 mmHg 35%
    10:00 +30°C° 0 mm 5 mps 718 mmHg 29%
    11:00 +33°C° 0 mm 6 mps 717 mmHg 24%
    12:00 +36°C° 0 mm 6 mps 717 mmHg 19%
    13:00 +36°C° 0 mm 6 mps 716 mmHg 18%
    14:00 +38°C° 0 mm 6 mps 716 mmHg 18%
    15:00 +39°C° 0 mm 6 mps 715 mmHg 17%
    16:00 +36°C° 0 mm 7 mps 715 mmHg 21%
    17:00 +34°C° 0 mm 8 mps 715 mmHg 26%
    18:00 +33°C° 0 mm 8 mps 715 mmHg 30%
    19:00 +31°C° 0 mm 8 mps 715 mmHg 33%
    20:00 +29°C° 0 mm 7 mps 716 mmHg 37%
    21:00 +27°C° 0 mm 6 mps 716 mmHg 41%
    22:00 +27°C° 0 mm 5 mps 716 mmHg 43%
    23:00 +26°C° 0 mm 4 mps 715 mmHg 46%

    1 Marzo, Domingo

    Tiempo Temperatura Precipitaciones Viento Presión Humedad
    00:00 +25°C° 0 mm 3 mps 715 mmHg 49%
    01:00 +25°C° 0 mm 3 mps 715 mmHg 53%
    02:00 +24°C° 0 mm 3 mps 714 mmHg 58%
    03:00 +22°C° 0 mm 3 mps 714 mmHg 63%
    04:00 +23°C° 0 mm 2 mps 715 mmHg 66%
    05:00 +21°C° 0 mm 2 mps 715 mmHg 70%
    06:00 +22°C° 0 mm 1 mps 715 mmHg 74%
    07:00 +24°C° 0 mm 2 mps 716 mmHg 63%
    08:00 +26°C° 0 mm 2 mps 717 mmHg 52%
    09:00 +27°C° 0 mm 3 mps 718 mmHg 41%
    10:00 +29°C° 0 mm 3 mps 718 mmHg 34%
    11:00 +33°C° 0 mm 3 mps 718 mmHg 28%
    12:00 +35°C° 0 mm 4 mps 717 mmHg 21%
    13:00 +35°C° 0 mm 4 mps 717 mmHg 20%
    14:00 +36°C° 0 mm 4 mps 716 mmHg 19%
    15:00 +37°C° 0 mm 4 mps 715 mmHg 17%
    16:00 +37°C° 0 mm 5 mps 715 mmHg 18%
    17:00 +36°C° 0 mm 6 mps 716 mmHg 19%
    18:00 +35°C° 0 mm 6 mps 716 mmHg 21%
    19:00 +33°C° 0 mm 6 mps 716 mmHg 27%
    20:00 +30°C° 0 mm 6 mps 716 mmHg 34%
    21:00 +28°C° 0 mm 6 mps 716 mmHg 41%
    22:00 +27°C° 0 mm 5 mps 716 mmHg 42%
    23:00 +27°C° 0 mm 4 mps 716 mmHg 43%

    2 Marzo, Lunes

    Tiempo Temperatura Precipitaciones Viento Presión Humedad
    00:00 +26°C° 0 mm 3 mps 716 mmHg 44%
    01:00 +26°C° 0 mm 3 mps 716 mmHg 46%
    02:00 +25°C° 0 mm 3 mps 716 mmHg 48%
    03:00 +25°C° 0 mm 2 mps 715 mmHg 50%
    04:00 +24°C° 0 mm 2 mps 715 mmHg 54%
    05:00 +23°C° 0 mm 2 mps 716 mmHg 58%
    06:00 +23°C° 0 mm 2 mps 716 mmHg 62%
    07:00 +25°C° 0 mm 2 mps 717 mmHg 55%
    08:00 +26°C° 0 mm 2 mps 718 mmHg 47%
    09:00 +28°C° 0 mm 2 mps 719 mmHg 39%
    10:00 +30°C° 0 mm 3 mps 718 mmHg 35%
    11:00 +33°C° 0 mm 3 mps 718 mmHg 30%
    12:00 +35°C° 0 mm 4 mps 718 mmHg 25%
    13:00 +36°C° 0 mm 4 mps 717 mmHg 24%
    14:00 +37°C° 0 mm 5 mps 716 mmHg 23%
    15:00 +39°C° 0 mm 5 mps 716 mmHg 22%
    16:00 +36°C° 0 mm 6 mps 716 mmHg 27%
    17:00 +35°C° 0 mm 7 mps 715 mmHg 32%
    18:00 +34°C° 0 mm 7 mps 715 mmHg 37%
    19:00 +32°C° 0 mm 7 mps 716 mmHg 43%
    20:00 +29°C° 0 mm 7 mps 716 mmHg 48%
    21:00 +27°C° 0 mm 7 mps 716 mmHg 53%
    22:00 +27°C° 0 mm 6 mps 716 mmHg 54%
    23:00 +26°C° 0 mm 6 mps 716 mmHg 55%
    Mostrar más